Stündliche Wetter Warnkowo

Heute, 31 Oktober, Samstag

Zeit Temperatur Niederschläge Wind Luftdruck Luftfeuchtigkeit
00:00 +10°C° 0 mm 1 m/S 759 mmHg 96%
01:00 +10°C° 0 mm 1 m/S 759 mmHg 95%
02:00 +10°C° 0 mm 1 m/S 759 mmHg 95%
03:00 +10°C° 0 mm 1 m/S 759 mmHg 96%
04:00 +10°C° 0 mm 1 m/S 760 mmHg 96%
05:00 +9°C° 0 mm 2 m/S 760 mmHg 96%
06:00 +9°C° 0 mm 2 m/S 760 mmHg 95%
07:00 +9°C° 0 mm 2 m/S 760 mmHg 95%
08:00 +10°C° 0 mm 2 m/S 761 mmHg 94%
09:00 +10°C° 0 mm 3 m/S 761 mmHg 93%
10:00 +10°C° 0 mm 3 m/S 761 mmHg 92%
11:00 +11°C° 0 mm 3 m/S 761 mmHg 91%
12:00 +11°C° 0 mm 3 m/S 761 mmHg 91%
13:00 +11°C° 0 mm 3 m/S 761 mmHg 90%
14:00 +11°C° 0 mm 3 m/S 761 mmHg 91%
15:00 +11°C° 0 mm 3 m/S 761 mmHg 92%
16:00 +11°C° 0 mm 3 m/S 760 mmHg 92%
17:00 +11°C° 0 mm 3 m/S 760 mmHg 93%
18:00 +11°C° 0 mm 4 m/S 760 mmHg 93%
19:00 +11°C° 0 mm 4 m/S 760 mmHg 93%
20:00 +11°C° 0 mm 4 m/S 760 mmHg 94%
21:00 +11°C° 0 mm 4 m/S 759 mmHg 94%
22:00 +10°C° 0 mm 4 m/S 759 mmHg 95%
23:00 +10°C° 0 mm 5 m/S 759 mmHg 95%

Morgen, 1 November, Sonntag

Zeit Temperatur Niederschläge Wind Luftdruck Luftfeuchtigkeit
00:00 +10°C° 0 mm 5 m/S 759 mmHg 95%
01:00 +10°C° 0 mm 5 m/S 759 mmHg 95%
02:00 +10°C° 0 mm 5 m/S 758 mmHg 94%
03:00 +10°C° 0 mm 5 m/S 758 mmHg 94%
04:00 +10°C° 0 mm 5 m/S 757 mmHg 93%
05:00 +10°C° 0 mm 5 m/S 757 mmHg 92%
06:00 +10°C° 0 mm 5 m/S 757 mmHg 92%
07:00 +10°C° 0 mm 5 m/S 756 mmHg 92%
08:00 +10°C° 0 mm 5 m/S 756 mmHg 91%
09:00 +10°C° 0 mm 5 m/S 756 mmHg 91%
10:00 +10°C° 0 mm 5 m/S 756 mmHg 91%
11:00 +11°C° 0 mm 4 m/S 755 mmHg 89%
12:00 +12°C° 0 mm 4 m/S 755 mmHg 87%
13:00 +12°C° 0 mm 4 m/S 754 mmHg 85%
14:00 +12°C° 0.6 mm 4 m/S 754 mmHg 88%
15:00 +12°C° 0.6 mm 4 m/S 754 mmHg 90%
16:00 +12°C° 0.6 mm 4 m/S 753 mmHg 92%
17:00 +12°C° 0.2 mm 5 m/S 753 mmHg 92%
18:00 +12°C° 0.2 mm 5 m/S 753 mmHg 91%
19:00 +12°C° 0.2 mm 5 m/S 752 mmHg 91%
20:00 +12°C° 0.2 mm 5 m/S 752 mmHg 91%
21:00 +12°C° 0.2 mm 5 m/S 752 mmHg 91%
22:00 +11°C° 0.2 mm 6 m/S 751 mmHg 91%
23:00 +12°C° 0.2 mm 5 m/S 751 mmHg 92%

übermorgen, 2 November, Montag

Zeit Temperatur Niederschläge Wind Luftdruck Luftfeuchtigkeit
00:00 +12°C° 0.2 mm 5 m/S 752 mmHg 92%
01:00 +13°C° 0.2 mm 5 m/S 752 mmHg 93%
02:00 +12°C° 0 mm 4 m/S 752 mmHg 91%
03:00 +11°C° 0 mm 4 m/S 752 mmHg 90%
04:00 +11°C° 0 mm 4 m/S 753 mmHg 88%
05:00 +10°C° 0 mm 4 m/S 753 mmHg 89%
06:00 +10°C° 0 mm 3 m/S 753 mmHg 89%
07:00 +10°C° 0 mm 3 m/S 754 mmHg 89%
08:00 +10°C° 0.1 mm 3 m/S 754 mmHg 88%
09:00 +11°C° 0.1 mm 4 m/S 753 mmHg 88%
10:00 +10°C° 0.1 mm 5 m/S 753 mmHg 88%
11:00 +12°C° 0 mm 5 m/S 753 mmHg 89%
12:00 +12°C° 0 mm 5 m/S 753 mmHg 91%
13:00 +13°C° 0 mm 5 m/S 753 mmHg 92%
14:00 +14°C° 0 mm 5 m/S 753 mmHg 92%
15:00 +14°C° 0 mm 5 m/S 753 mmHg 93%
16:00 +15°C° 0 mm 5 m/S 752 mmHg 93%
17:00 +15°C° 0 mm 5 m/S 753 mmHg 91%
18:00 +15°C° 0 mm 5 m/S 753 mmHg 89%
19:00 +15°C° 0 mm 5 m/S 753 mmHg 87%
20:00 +15°C° 0 mm 5 m/S 753 mmHg 86%
21:00 +15°C° 0 mm 5 m/S 753 mmHg 85%
22:00 +16°C° 0 mm 6 m/S 753 mmHg 84%
23:00 +15°C° 0.1 mm 6 m/S 753 mmHg 85%

3 November, Dienstag

Zeit Temperatur Niederschläge Wind Luftdruck Luftfeuchtigkeit
00:00 +15°C° 0.1 mm 6 m/S 754 mmHg 87%
01:00 +15°C° 0.1 mm 5 m/S 754 mmHg 88%
02:00 +14°C° 0 mm 5 m/S 754 mmHg 85%
03:00 +14°C° 0 mm 4 m/S 755 mmHg 83%
04:00 +13°C° 0 mm 4 m/S 755 mmHg 80%
05:00 +12°C° 0 mm 4 m/S 756 mmHg 78%
06:00 +12°C° 0 mm 4 m/S 757 mmHg 77%
07:00 +11°C° 0 mm 4 m/S 757 mmHg 75%
08:00 +10°C° 0 mm 5 m/S 758 mmHg 72%
09:00 +10°C° 0 mm 6 m/S 758 mmHg 70%
10:00 +10°C° 0 mm 7 m/S 759 mmHg 67%
11:00 +11°C° 0 mm 7 m/S 759 mmHg 65%
12:00 +11°C° 0 mm 7 m/S 760 mmHg 63%
13:00 +11°C° 0 mm 7 m/S 760 mmHg 60%
14:00 +10°C° 0 mm 6 m/S 760 mmHg 63%
15:00 +10°C° 0 mm 6 m/S 761 mmHg 65%
16:00 +9°C° 0 mm 5 m/S 761 mmHg 68%
17:00 +8°C° 0 mm 5 m/S 761 mmHg 70%
18:00 +8°C° 0 mm 5 m/S 762 mmHg 72%
19:00 +7°C° 0 mm 5 m/S 762 mmHg 74%
20:00 +7°C° 0 mm 4 m/S 762 mmHg 75%
21:00 +7°C° 0 mm 4 m/S 762 mmHg 77%
22:00 +7°C° 0 mm 4 m/S 763 mmHg 78%
23:00 +6°C° 0 mm 4 m/S 763 mmHg 80%

4 November, Mittwoch

Zeit Temperatur Niederschläge Wind Luftdruck Luftfeuchtigkeit
00:00 +6°C° 0 mm 4 m/S 763 mmHg 81%
01:00 +6°C° 0 mm 4 m/S 763 mmHg 82%
02:00 +5°C° 0 mm 4 m/S 763 mmHg 83%
03:00 +5°C° 0 mm 4 m/S 763 mmHg 84%
04:00 +5°C° 0 mm 4 m/S 763 mmHg 85%
05:00 +4°C° 0 mm 4 m/S 763 mmHg 85%
06:00 +4°C° 0 mm 4 m/S 763 mmHg 84%
07:00 +4°C° 0 mm 4 m/S 763 mmHg 84%
08:00 +5°C° 0 mm 5 m/S 764 mmHg 81%
09:00 +6°C° 0 mm 5 m/S 764 mmHg 78%
10:00 +7°C° 0 mm 5 m/S 764 mmHg 75%
11:00 +7°C° 0 mm 5 m/S 765 mmHg 73%
12:00 +8°C° 0 mm 4 m/S 765 mmHg 70%
13:00 +8°C° 0 mm 4 m/S 765 mmHg 68%
14:00 +9°C° 0 mm 3 m/S 765 mmHg 71%
15:00 +8°C° 0 mm 2 m/S 766 mmHg 75%
16:00 +8°C° 0 mm 2 m/S 766 mmHg 78%
17:00 +7°C° 0 mm 2 m/S 766 mmHg 81%
18:00 +6°C° 0 mm 2 m/S 767 mmHg 84%
19:00 +6°C° 0 mm 2 m/S 767 mmHg 87%
20:00 +5°C° 0 mm 2 m/S 767 mmHg 88%
21:00 +5°C° 0 mm 2 m/S 768 mmHg 89%
22:00 +5°C° 0 mm 2 m/S 768 mmHg 90%
23:00 +5°C° 0 mm 2 m/S 768 mmHg 91%

5 November, Donnerstag

Zeit Temperatur Niederschläge Wind Luftdruck Luftfeuchtigkeit
00:00 +5°C° 0 mm 1 m/S 769 mmHg 91%
01:00 +5°C° 0 mm 1 m/S 769 mmHg 92%
02:00 +5°C° 0 mm 1 m/S 769 mmHg 92%
03:00 +5°C° 0 mm 1 m/S 769 mmHg 93%
04:00 +5°C° 0 mm 1 m/S 769 mmHg 93%
05:00 +4°C° 0 mm 1 m/S 770 mmHg 93%
06:00 +3°C° 0 mm 2 m/S 770 mmHg 94%
07:00 +3°C° 0 mm 2 m/S 770 mmHg 94%
08:00 +4°C° 0 mm 2 m/S 771 mmHg 90%
09:00 +5°C° 0 mm 2 m/S 771 mmHg 87%
10:00 +7°C° 0 mm 2 m/S 771 mmHg 83%
11:00 +7°C° 0 mm 2 m/S 771 mmHg 80%
12:00 +8°C° 0 mm 2 m/S 771 mmHg 76%
13:00 +9°C° 0 mm 3 m/S 771 mmHg 73%
14:00 +8°C° 0 mm 2 m/S 771 mmHg 75%
15:00 +7°C° 0 mm 2 m/S 771 mmHg 78%
16:00 +7°C° 0 mm 2 m/S 771 mmHg 80%
17:00 +6°C° 0 mm 2 m/S 771 mmHg 83%
18:00 +5°C° 0 mm 3 m/S 772 mmHg 86%
19:00 +4°C° 0 mm 3 m/S 772 mmHg 89%
20:00 +4°C° 0 mm 3 m/S 772 mmHg 90%
21:00 +4°C° 0 mm 3 m/S 772 mmHg 92%
22:00 +4°C° 0 mm 3 m/S 772 mmHg 93%
23:00 +4°C° 0 mm 3 m/S 772 mmHg 93%
Mehr zeigen

Wir brauchen deine Erlaubnis

Meteoprog und unser Service Anbieter werden persönliche Daten aufbewahren, so wie Cookies, Geräte Bezeichnung oder ähnliche Technologien von deinem Gerät und Prozess, so wie Persönliche Daten Inhalte und Werbungen, genauso wie social Media und den Verkehr zu analysieren.

  • Aufbewahrung und/oder Zugang zu deiner Geräte Informationen.

    Cookies, Geräte Bezeichnung oder andere Informationen, können aufbewahrt oder Zugang zu deinem Gerät erhalten, für den Grund, der oben angegeben wird.

  • Personalisierte Werbung und Inhalte, Messungen, Einblick in das Publikum und Produkt Entwicklung.

    Werbungen und Inhalte können personalisiert werden, basierend auf ein Profil. Mehr Daten können besser personalisierte Werbungen und Inhalte hinzufügen. Werbung und Inhalte können gezeigt und gemessen werden. Einblicke über das Publikum, welche die Werbung gesehen haben und den Inhalt, können abgeleitet werden. So wie Daten können genutzt werden, um es zu verbessern oder die Benutzer Erfahrung zu verbessern das System und die Software.

Wenn du “Ich stimme zu” klickst, erlaubst du uns, die Cookies zu benutzen die Geräte Bezeichnung, den Web oder ähnliche Technologien zu benutzen. Deine Settings, können in deinem Gerät bei deinem Browser geändert werden.

Für den bestimmten Zweck, berechtigten Interessen beruhen darauf, mehr als auf den Inhalt. Du kannst mehr darüber in unseren Privaten und Cookie Politik lesen.